Location: Charlottesville
(38.0290°N, 78.4770°W)
Time: 01:28:27
(UTC-05:00)

Vanguard 1 - Visible Passes

Search period start: 24 February 2018 00:00
Search period end: 06 March 2018 00:00
Orbit: 650 x 3833 km, 34.2° (Epoch: 23 February)

Date Brightness Start Highest point End Pass type
(mag) Time Alt. Az. Time Alt. Az. Time Alt. Az.
24 Feb 11.8 20:14:20 10° WSW 20:16:41 13° SW 20:18:47 10° SSW visible
26 Feb 11.6 18:32:04 10° W 18:39:05 32° SSW 18:43:45 10° SSE visible
27 Feb 11.8 18:53:48 10° W 18:59:37 23° SW 19:03:47 10° SSE visible
28 Feb 12.1 19:16:04 10° WSW 19:20:01 15° SW 19:23:12 10° S visible
05 Mar 12.8 18:40:10 10° WSW 18:43:24 12° SW 18:46:07 10° SSW visible
